IU1FIL-23 Weather Reports


Display with metric or nautical units.
time (UTC)temp
F
wind
direction
speed
MPH
gust
MPH
rain 1hr
in
rain 24hr
in
rain mn
in
humidity
%
barometer
mb
20260507111019 60 0.0 0.0 0.00 0.00 0.00 95 1015.8
20260507110015 60 0.0 0.0 0.00 0.00 0.00 92 1015.7
20260507105011 60 0.0 0.0 0.00 0.00 0.00 88 1015.8
20260507103953 61 0.0 0.0 0.00 0.00 0.00 91 1015.8
20260507102940 63 0.0 0.0 0.00 0.00 0.00 86 1015.8
20260507101936 65 0.0 0.0 0.00 0.00 0.00 81 1015.8
20260507100931 61 0.0 0.0 0.00 0.00 0.00 83 1015.9
20260507095926 58 0.0 0.0 0.00 0.00 0.00 92 1015.9
20260507094922 59 0.0 0.0 0.00 0.00 0.00 92 1015.8
20260507093917 61 0.0 0.0 0.00 0.00 0.00 86 1015.7
20260507092913 58 0.0 0.0 0.00 0.00 0.00 93 1015.6
20260507091908 59 0.0 0.0 0.00 0.00 0.00 10 1015.6
20260507090903 57 0.0 0.0 0.00 0.00 0.00 10 1015.5
20260507085848 57 0.0 0.0 0.00 0.00 0.00 10 1015.4
20260507084843 57 0.0 0.0 0.00 0.00 0.00 10 1015.3
20260507083838 57 0.0 0.0 0.00 0.00 0.00 10 1015.2
20260507082832 58 0.0 0.0 0.00 0.00 0.00 10 1015.1
20260507081837 58 0.0 0.0 0.00 0.00 0.00 10 1015.1
20260507080823 61 0.0 0.0 0.00 0.00 0.00 86 1015.1
20260507075819 66 0.0 0.0 0.00 0.00 0.00 93 1015.1
20260507074814 63 0.0 0.0 0.00 0.00 0.00 98 1015.0
20260507073809 62 0.0 0.0 0.00 0.00 0.00 92 1014.9
20260507072805 61 0.0 0.0 0.00 0.00 0.00 84 1015.0
20260507071800 61 0.0 0.0 0.00 0.00 0.00 10 1014.9
20260507070756 60 0.0 0.0 0.00 0.00 0.00 10 1014.8
20260507065751 59 0.0 0.0 0.00 0.00 0.00 10 1014.8
20260507064747 58 0.0 0.0 0.00 0.00 0.00 10 1014.6
20260507063742 58 0.0 0.0 0.00 0.00 0.00 10 1014.5
20260507062730 57 0.0 0.0 0.00 0.00 0.00 10 1014.4
20260507061725 57 0.0 0.0 0.00 0.00 0.00 10 1014.3
20260507060720 58 0.0 0.0 0.00 0.00 0.00 10 1014.2
20260507055716 58 0.0 0.0 0.00 0.00 0.00 10 1014.1
20260507054711 57 0.0 0.0 0.00 0.00 0.00 10 1014.1
20260507053707 57 0.0 0.0 0.00 0.00 0.00 10 1014.0
20260507052702 56 0.0 0.0 0.00 0.00 0.00 10 1013.9
20260507051657 55 0.0 0.0 0.00 0.00 0.00 10 1013.7
20260507050653 54 0.0 0.0 0.00 0.00 0.00 10 1013.5
20260507045648 51 0.0 0.0 0.00 0.00 0.00 10 1013.5
20260507044643 47 0.0 0.0 0.00 0.00 0.00 10 1013.5
20260507043639 46 0.0 0.0 0.00 0.00 0.00 10 1013.4
20260507042634 45 0.0 0.0 0.00 0.00 0.00 10 1013.3
20260507041630 45 0.0 0.0 0.00 0.00 0.00 10 1013.2
20260507040625 45 0.0 0.0 0.00 0.00 0.00 10 1013.2
20260507035620 45 0.0 0.0 0.00 0.00 0.00 10 1013.1
20260507034616 45 0.0 0.0 0.00 0.00 0.00 10 1013.1
20260507033611 45 0.0 0.0 0.00 0.00 0.00 10 1013.0
20260507032607 45 0.0 0.0 0.00 0.00 0.00 10 1012.9
20260507031602 45 0.0 0.0 0.00 0.00 0.00 10 1013.0
20260507030557 44 0.0 0.0 0.00 0.00 0.00 10 1012.8
20260507025553 45 0.0 0.0 0.00 0.00 0.00 10 1012.9
20260507024548 45 0.0 0.0 0.00 0.00 0.00 10 1012.9
20260507023543 45 0.0 0.0 0.00 0.00 0.00 10 1012.9
20260507022539 45 0.0 0.0 0.00 0.00 0.00 10 1012.8
20260507021534 45 0.0 0.0 0.00 0.00 0.00 10 1012.8
20260507020530 45 0.0 0.0 0.00 0.00 0.00 10 1012.8
20260507015525 45 0.0 0.0 0.00 0.00 0.00 10 1012.7
20260507014520 45 0.0 0.0 0.00 0.00 0.00 10 1012.7
20260507013516 45 0.0 0.0 0.00 0.00 0.00 10 1012.6
20260507012511 45 0.0 0.0 0.00 0.00 0.00 10 1012.5
20260507011507 45 0.0 0.0 0.00 0.00 0.00 10 1012.5
20260507010502 46 0.0 0.0 0.00 0.00 0.00 10 1012.6
20260507005457 46 0.0 0.0 0.00 0.00 0.00 10 1012.6
20260507004453 46 0.0 0.0 0.00 0.00 0.00 10 1012.6
20260507003448 46 0.0 0.0 0.00 0.00 0.00 10 1012.6
20260507002444 46 0.0 0.0 0.00 0.00 0.00 10 1012.7
20260507001439 46 0.0 0.0 0.00 0.00 0.00 10 1012.7
20260507000435 47 0.0 0.0 0.00 0.00 0.00 10 1012.7
20260506235430 47 0.0 0.0 0.00 0.00 0.00 10 1012.6
20260506234425 47 0.0 0.0 0.00 0.00 0.00 10 1012.6
20260506233421 47 0.0 0.0 0.00 0.00 0.00 10 1012.7
20260506232416 47 0.0 0.0 0.00 0.00 0.00 10 1012.8
20260506231411 47 0.0 0.0 0.00 0.00 0.00 10 1012.7
20260506230407 47 0.0 0.0 0.00 0.00 0.00 10 1012.7
20260506225402 47 0.0 0.0 0.00 0.00 0.00 10 1012.7
20260506224357 47 0.0 0.0 0.00 0.00 0.00 10 1012.6
20260506223352 47 0.0 0.0 0.00 0.00 0.00 10 1012.6
20260506222346 47 0.0 0.0 0.00 0.00 0.00 10 1012.6
20260506221341 47 0.0 0.0 0.00 0.00 0.00 10 1012.5
20260506220336 48 0.0 0.0 0.00 0.00 0.00 10 1012.4
20260506215330 48 0.0 0.0 0.00 0.00 0.00 10 1012.4
20260506214325 48 0.0 0.0 0.00 0.00 0.00 10 1012.5
20260506213320 48 0.0 0.0 0.00 0.00 0.00 10 1012.5
20260506212258 49 0.0 0.0 0.00 0.00 0.00 10 1012.6
20260506211253 48 0.0 0.0 0.00 0.00 0.00 10 1012.5
20260506210248 47 0.0 0.0 0.00 0.00 0.00 10 1012.6
20260506205242 48 0.0 0.0 0.00 0.00 0.00 10 1012.5
20260506204222 48 0.0 0.0 0.00 0.00 0.00 10 1012.2
20260506203215 49 0.0 0.0 0.00 0.00 0.00 10 1012.2
20260506202209 50 0.0 0.0 0.00 0.00 0.00 10 1012.2
20260506201204 49 0.0 0.0 0.00 0.00 0.00 10 1012.2
20260506200159 49 0.0 0.0 0.00 0.00 0.00 10 1011.9
20260506195154 48 0.0 0.0 0.00 0.00 0.00 10 1012.0
20260506194150 49 0.0 0.0 0.00 0.00 0.00 10 1011.6
20260506193145 49 0.0 0.0 0.00 0.00 0.00 10 1011.7
20260506192140 49 0.0 0.0 0.00 0.00 0.00 10 1011.3
20260506191136 49 0.0 0.0 0.00 0.00 0.00 10 1011.3
20260506190131 50 0.0 0.0 0.00 0.00 0.00 10 1011.1
20260506185127 50 0.0 0.0 0.00 0.00 0.00 98 1010.9
20260506184122 51 0.0 0.0 0.00 0.00 0.00 93 1010.7
20260506183117 51 0.0 0.0 0.00 0.00 0.00 91 1010.7
20260506182113 51 0.0 0.0 0.00 0.00 0.00 93 1010.4
20260506181108 52 0.0 0.0 0.00 0.00 0.00 92 1010.3
20260506180104 52 0.0 0.0 0.00 0.00 0.00 96 1010.5
20260506175059 52 0.0 0.0 0.00 0.00 0.00 93 1010.0
20260506174541 52 0.0 0.0 0.00 0.00 0.00 93 1010.0
20260506174054 52 0.0 0.0 0.00 0.00 0.00 93 1010.0
20260506173050 52 0.0 0.0 0.00 0.00 0.00 90 1010.1
20260506172045 53 0.0 0.0 0.00 0.00 0.00 92 1010.1
20260506171041 52 0.0 0.0 0.00 0.00 0.00 92 1010.5
20260506170036 53 0.0 0.0 0.00 0.00 0.00 92 1010.1
20260506165031 53 0.0 0.0 0.00 0.00 0.00 88 1010.2
20260506164027 55 0.0 0.0 0.00 0.00 0.00 85 1010.3
20260506163015 55 0.0 0.0 0.00 0.00 0.00 84 1010.0
20260506162011 54 0.0 0.0 0.00 0.00 0.00 90 1010.4
20260506161006 54 0.0 0.0 0.00 0.00 0.00 87 1010.2
20260506160038 54 0.0 0.0 0.00 0.00 0.00 93 1010.5
20260506160002 54 0.0 0.0 0.00 0.00 0.00 93 1010.5
20260506154957 53 0.0 0.0 0.00 0.00 0.00 98 1010.2
20260506153952 55 0.0 0.0 0.00 0.00 0.00 91 1010.2
20260506152935 56 0.0 0.0 0.00 0.00 0.00 85 1010.0
20260506151931 56 0.0 0.0 0.00 0.00 0.00 86 1010.0
20260506150926 55 0.0 0.0 0.00 0.00 0.00 91 1010.2
20260506145921 55 0.0 0.0 0.00 0.00 0.00 10 1010.4
20260506144912 57 0.0 0.0 0.00 0.00 0.00 94 1010.5
20260506143907 54 0.0 0.0 0.00 0.00 0.00 10 1010.6
20260506142903 53 0.0 0.0 0.00 0.00 0.00 10 1010.4
20260506141858 54 0.0 0.0 0.00 0.00 0.00 10 1010.4
20260506140853 53 0.0 0.0 0.00 0.00 0.00 10 1010.3
20260506135849 54 0.0 0.0 0.00 0.00 0.00 10 1010.4
20260506134844 56 0.0 0.0 0.00 0.00 0.00 93 1010.0
20260506133840 55 0.0 0.0 0.00 0.00 0.00 93 1010.4
20260506132835 58 0.0 0.0 0.00 0.00 0.00 88 1010.7
20260506131830 57 0.0 0.0 0.00 0.00 0.00 81 1010.6
20260506130826 57 0.0 0.0 0.00 0.00 0.00 90 1010.5
20260506125821 58 0.0 0.0 0.00 0.00 0.00 86 1011.0
20260506124816 56 0.0 0.0 0.00 0.00 0.00 10 1010.4
20260506123812 55 0.0 0.0 0.00 0.00 0.00 10 1010.6
20260506122807 54 0.0 0.0 0.00 0.00 0.00 10 1010.5
20260506121917 54 0.0 0.0 0.00 0.00 0.00 10 1010.6
20260506121803 54 0.0 0.0 0.00 0.00 0.00 10 1010.6
20260506120758 56 0.0 0.0 0.00 0.00 0.00 10 1010.0
20260506115753 54 0.0 0.0 0.00 0.00 0.00 10 1011.1
20260506114749 54 0.0 0.0 0.00 0.00 0.00 10 1010.4
20260506113744 53 0.0 0.0 0.00 0.00 0.00 10 1010.4
20260506112740 53 0.0 0.0 0.00 0.00 0.00 10 1010.5